Theta_e
309 307 302 300 299 299 300 300 301 300 298 297 298 301 298 296 294 298 302 298 302 308 308 307 307 309 309 309 314 315 321 324 328 324 324 322 323 323 324 323 325 326 328 329 331 333 331 344 338 335 339 340 340 341
309 307 302 301 299 299 300 300 301 301 299 297 297 300 298 295 294 294 296 296 298 304 307 305 306 306 306 306 306 311 320 320 323 329 329 327 327 326 326 328 328 329 330 331 328 328 337 343 345 343 344 344 342 340
309 306 302 301 300 300 300 300 301 301 300 298 297 298 298 295 294 294 295 296 300 305 308 307 312 309 309 308 307 311 315 313 316 320 325 327 328 324 329 330 329 330 330 337 339 341 344 343 340 342 345 346 341 337
309 304 301 301 300 300 300 300 301 301 300 298 297 297 297 295 294 294 296 299 301 304 310 310 308 309 309 308 307 307 307 310 314 317 321 323 326 319 323 323 327 328 332 339 342 339 340 339 339 342 345 344 342 341
305 302 301 301 300 300 300 300 302 302 300 299 297 297 296 295 294 296 303 303 303 305 310 309 308 309 310 308 307 306 307 310 312 312 319 322 318 320 319 322 328 334 335 336 341 338 341 340 338 340 345 344 343 344
305 301 301 300 300 300 300 301 303 301 300 299 297 296 296 295 294 300 308 304 302 302 309 310 307 310 312 308 308 308 309 311 313 314 315 315 314 318 322 324 332 333 333 332 338 335 337 336 334 336 340 342 342 342
305 303 301 300 300 300 301 301 301 301 300 298 297 296 296 295 294 297 305 304 304 302 309 310 312 313 313 311 311 310 307 310 309 311 311 312 315 316 321 323 332 333 332 332 331 334 337 336 337 334 336 334 334 334
303 302 301 300 300 301 301 301 301 301 299 297 296 296 296 294 295 301 305 304 298 300 306 311 313 316 314 314 316 310 312 310 311 313 313 314 312 313 315 319 318 318 319 328 332 333 332 334 332 332 332 333 334 334
303 302 301 301 302 300 299 301 300 299 298 297 296 296 297 301 304 306 305 304 300 306 312 312 315 321 314 317 316 316 312 314 310 314 314 314 314 313 313 320 322 323 322 325 328 333 334 332 332 331 330 329 328 329
302 302 302 300 298 298 299 300 299 298 297 296 296 300 306 304 307 306 305 308 309 308 308 310 311 318 317 318 321 320 317 321 321 317 312 316 316 315 320 320 320 320 321 321 329 334 332 330 329 327 326 327 328 328
300 299 298 298 298 298 299 300 299 297 296 296 299 304 303 304 306 307 310 311 310 312 310 309 309 313 313 321 323 317 320 320 324 320 319 319 319 322 319 319 318 319 320 322 322 322 323 323 323 324 325 324 325 326
299 299 299 300 300 299 300 299 298 297 296 299 300 300 302 306 308 311 311 310 312 312 312 313 312 309 314 317 321 320 321 320 322 320 325 325 324 320 320 320 319 318 318 318 317 318 318 319 320 322 322 323 324 324
302 301 301 301 301 300 300 299 297 297 298 297 301 305 308 308 309 309 311 313 313 313 314 314 314 315 319 320 321 321 322 321 320 324 324 323 323 321 321 320 319 317 315 315 316 316 316 317 316 317 317 317 319 321
298 300 301 302 302 301 300 298 297 297 297 303 307 306 309 310 309 309 311 312 311 313 316 317 319 319 319 321 321 318 320 321 322 324 324 325 322 321 319 316 316 316 316 316 316 316 316 316 316 316 316 316 317 317
298 299 301 302 302 302 299 297 297 297 299 306 308 308 309 309 308 309 309 310 311 313 317 317 317 317 319 320 319 320 321 322 323 325 324 322 320 318 317 316 316 316 317 318 318 318 318 317 317 317 316 316 316 317
299 302 303 302 302 300 297 298 298 296 301 305 306 309 310 310 311 311 312 312 312 315 316 316 318 318 319 318 319 320 321 323 323 323 322 320 319 317 316 315 315 315 317 317 319 318 317 316 317 317 316 316 318 318
299 301 300 302 300 297 298 297 295 298 303 306 309 307 308 309 311 312 313 315 311 316 320 319 318 319 315 319 320 320 322 321 320 320 318 317 317 316 315 315 316 316 318 319 319 318 317 317 316 317 318 319 318 319
301 301 301 297 298 299 296 297 299 301 304 306 308 309 308 310 314 314 313 313 314 317 316 318 315 318 318 319 321 321 319 318 316 317 315 315 314 315 315 316 316 318 319 319 319 318 319 318 319 318 317 318 316 317
301 300 298 297 297 295 297 298 301 307 307 307 306 307 309 313 313 311 309 308 308 309 313 314 316 317 320 319 319 318 317 316 316 315 315 314 314 314 315 316 318 317 317 317 317 318 318 317 317 317 317 317 318 315
298 298 298 296 300 302 303 303 301 305 309 310 310 312 312 312 310 308 309 308 309 311 314 316 318 319 319 316 315 315 314 314 311 313 315 316 314 315 315 316 317 317 317 317 317 315 316 316 315 314 314 314 314 313
299 299 297 298 299 301 303 305 305 306 307 311 311 312 313 308 309 309 310 307 311 312 316 316 316 315 312 313 312 312 313 312 312 312 314 314 313 313 315 315 315 316 317 315 317 315 315 314 314 313 313 313 312 313
298 298 297 296 300 303 304 303 307 307 310 312 313 313 313 313 311 309 306 310 311 313 313 313 313 312 312 312 311 311 313 313 313 313 313 313 313 315 315 315 316 315 314 314 314 314 314 314 314 314 313 313 313 313
297 299 300 301 303 302 306 306 309 310 312 312 310 311 310 308 307 305 310 309 309 307 308 308 309 309 310 311 311 313 313 313 313 314 315 314 314 314 314 315 316 315 314 313 314 314 313 313 314 315 314 314 315 314
298 299 303 305 305 306 305 308 308 308 308 308 310 311 310 309 308 309 310 309 309 307 308 310 311 313 313 313 314 313 313 313 315 313 314 315 314 316 315 314 313 314 314 313 313 313 312 312 312 312 311 312 313 313
300 299 302 302 303 307 309 309 307 307 309 308 308 309 309 308 310 308 308 312 311 311 312 311 311 312 313 315 313 313 314 315 316 317 314 314 313 312 314 314 313 313 313 313 313 313 313 313 313 312 312 312 311 311
301 305 306 308 308 309 307 307 306 307 308 309 309 310 310 311 311 311 312 312 311 312 313 314 313 313 313 312 313 316 317 315 316 316 315 315 314 314 314 315 316 315 314 315 316 316 315 314 313 313 313 313 311 311
304 306 307 304 306 305 307 307 307 309 309 310 311 311 312 313 313 312 311 310 312 312 313 313 312 313 314 314 316 315 315 315 316 316 315 314 313 313 313 314 315 315 313 314 314 315 316 316 316 316 315 314 314 314
305 306 305 306 306 305 306 309 309 309 310 310 312 314 314 314 314 313 311 311 312 313 313 313 314 314 314 315 315 315 315 315 315 315 315 315 315 316 316 316 312 311 312 311 310 312 313 314 315 313 313 314 314 314
306 306 306 306 306 307 308 310 312 311 310 311 313 314 314 312 312 312 312 313 313 314 314 314 314 314 314 314 314 314 314 315 316 316 316 315 313 314 313 311 309 309 309 310 310 310 310 312 312 311 311 312 311 311
308 306 307 309 310 311 311 310 311 312 312 311 312 313 313 313 312 312 313 313 314 315 314 315 314 314 315 316 316 315 315 315 315 315 314 312 312 311 311 311 311 310 310 310 310 309 310 310 310 310 310 311 311 311
308 307 309 311 313 314 314 313 312 312 312 313 313 313 313 312 311 313 313 313 314 314 314 315 314 314 314 314 314 315 315 311 311 312 313 314 313 310 310 310 309 309 309 309 310 310 310 310 311 312 311 311 311 310
312 312 312 313 313 312 312 313 314 315 315 315 315 314 314 315 315 312 313 314 314 315 314 314 315 315 313 312 312 312 312 312 312 311 310 311 312 314 311 310 310 309 310 310 311 311 312 312 311 311 310 310 309 308
314 314 314 314 314 314 314 313 314 315 315 315 314 315 315 315 315 314 313 314 314 315 315 314 313 312 312 311 311 312 312 311 311 311 311 311 311 312 311 310 310 311 311 311 310 310 309 309 309 309 308 308 307 307
Wind_Speed
25 23 20 18 14 10 7 5 3 6 8 9 11 13 14 14 15 7 1 9 4 2 4 3 2 1 1 1 2 5 4 2 4 3 2 1 1 2 1 1 2 2 2 2 2 1 4 9 3 3 3 3 5 4
26 25 22 19 16 12 9 6 4 4 6 7 8 10 12 13 15 11 2 8 7 4 3 5 10 15 11 10 3 1 3 2 3 2 2 1 1 1 1 3 1 2 2 2 2 1 0 1 3 7 5 6 3 5
29 25 22 20 17 13 10 7 6 4 4 6 7 8 10 11 13 13 7 8 3 2 4 4 0 1 5 11 13 2 1 2 1 1 2 1 2 2 1 2 2 2 2 1 3 2 1 5 4 6 5 3 2 6
32 25 22 20 17 14 10 9 7 5 4 5 6 7 9 10 11 12 7 5 2 1 2 1 4 2 4 3 10 11 1 1 1 1 1 1 0 2 1 2 2 2 1 1 3 2 2 3 3 5 2 5 7 9
25 22 21 20 17 14 12 10 8 6 5 5 6 7 9 10 10 10 3 3 2 2 3 4 12 2 7 3 7 6 4 2 1 1 1 1 0 1 1 1 2 2 1 1 2 2 1 2 1 2 3 5 6 10
19 24 20 18 16 14 12 10 9 7 6 5 6 7 8 10 10 1 2 0 4 3 2 2 4 4 6 4 7 4 2 1 1 1 1 1 1 2 2 2 1 3 4 3 2 1 2 3 1 2 5 5 4 6
23 22 19 16 15 14 12 10 10 8 7 6 6 7 8 9 8 1 2 1 5 8 2 3 3 1 4 2 2 2 2 1 1 1 1 1 1 2 2 3 3 4 3 2 4 4 1 4 2 3 3 4 1 0
20 19 17 17 15 14 12 11 10 8 7 6 7 8 9 10 7 2 1 5 12 3 2 2 2 2 4 2 2 2 1 1 1 0 1 2 2 1 4 5 5 9 9 6 5 6 4 0 2 2 2 3 4 3
19 19 19 18 16 14 13 11 10 8 6 6 7 8 3 1 1 2 4 5 7 1 2 2 2 1 3 1 0 2 0 3 1 2 2 3 2 4 1 6 9 7 6 9 3 5 4 3 2 1 0 2 4 5
20 20 19 17 15 15 14 12 10 7 6 5 3 1 2 1 0 4 2 2 2 2 1 3 1 2 1 1 2 2 1 2 3 2 2 3 3 1 3 5 7 9 10 8 8 8 6 5 3 1 4 5 5 6
19 19 19 17 15 14 14 13 10 9 5 2 2 1 0 3 3 1 1 2 2 2 3 3 4 2 2 2 2 1 1 1 2 3 3 3 3 2 3 4 6 8 9 8 6 6 6 4 3 4 5 7 8 9
23 22 21 18 17 16 15 13 12 8 4 4 2 0 1 2 1 2 2 1 3 2 3 2 1 4 1 1 2 2 1 2 3 2 3 3 2 3 1 4 6 9 10 9 11 8 8 7 8 7 7 7 8 8
21 27 26 22 21 17 16 13 12 7 6 2 1 2 1 1 2 4 4 3 2 3 3 2 2 2 2 3 2 2 3 2 1 3 1 1 5 3 2 3 5 7 10 10 10 10 9 9 9 8 9 10 11 12
20 21 19 29 25 22 20 15 13 8 2 2 3 3 3 3 4 4 3 1 1 2 2 2 1 2 1 4 2 2 1 3 3 3 1 3 4 3 1 3 6 8 9 9 10 11 12 12 13 12 12 12 13 15
21 22 20 26 28 25 21 16 13 6 3 2 2 3 4 3 3 3 3 3 3 2 1 2 1 1 1 1 1 0 3 3 1 2 2 2 2 1 3 6 8 9 8 9 10 11 13 13 13 15 14 13 13 13
16 23 15 31 26 25 21 16 10 4 1 2 2 2 3 3 1 2 2 4 1 1 1 1 1 2 4 3 4 3 2 1 2 2 2 3 1 2 4 5 8 9 11 11 12 11 12 12 13 14 14 13 12 11
14 4 30 31 28 25 20 8 5 3 2 2 3 3 4 4 3 2 2 1 1 2 2 2 5 4 1 2 1 1 1 3 3 3 2 1 3 5 5 7 8 9 10 10 9 8 11 12 12 11 11 9 6 7
15 35 33 31 29 19 5 2 2 2 4 3 3 1 2 2 3 2 1 2 2 2 2 1 2 3 1 2 1 3 2 2 1 1 2 3 5 6 6 8 10 7 7 5 4 3 5 8 7 4 2 4 6 6
34 32 30 28 15 5 4 4 2 2 3 2 3 2 1 2 1 2 2 2 3 1 2 2 1 1 1 0 1 3 1 2 2 3 4 6 5 5 7 8 4 4 5 5 5 4 4 5 5 6 6 6 6 8
28 27 23 9 3 2 2 2 2 2 1 1 1 1 1 1 2 2 2 3 1 2 1 0 1 1 1 2 1 2 1 1 1 3 3 3 4 5 7 3 2 2 2 3 4 5 4 5 8 8 7 7 6 7
17 11 8 2 3 2 1 2 2 2 0 2 0 1 2 1 1 1 3 4 1 1 1 1 1 2 1 0 0 1 2 3 3 3 3 3 7 9 1 2 1 1 1 3 4 4 6 7 6 6 7 8 7 10
5 8 1 2 2 1 2 3 1 1 2 1 1 1 1 1 1 2 3 2 1 0 1 1 1 1 2 2 2 3 5 6 7 9 10 8 2 0 2 2 5 5 6 7 7 6 7 6 7 9 9 11 11 12
6 2 3 2 2 1 1 2 1 1 0 2 1 1 2 2 2 3 2 1 2 1 2 2 2 3 4 4 3 4 4 5 6 7 4 2 3 4 4 4 4 6 7 8 10 11 10 9 11 13 13 13 12 10
6 2 2 1 2 1 1 1 1 1 1 1 0 1 1 2 3 1 2 2 1 1 3 3 3 2 2 3 2 2 5 5 1 4 6 7 6 7 6 6 7 8 8 8 10 9 9 8 9 9 7 7 7 7
2 0 0 1 2 1 1 1 2 1 1 1 0 0 0 0 1 1 2 2 1 2 2 3 4 4 2 0 1 2 3 2 3 5 4 7 9 8 8 8 8 7 7 9 7 7 6 5 6 7 8 9 9 8
1 2 1 2 1 0 0 1 1 1 0 1 1 0 1 1 1 3 2 1 1 1 1 2 2 2 2 3 1 1 1 2 4 7 6 7 7 9 8 6 6 4 2 1 1 1 1 1 1 2 3 4 5 5
1 1 1 1 2 2 0 0 1 2 2 3 1 2 2 2 3 2 1 2 1 2 2 3 4 4 5 6 3 2 4 6 4 7 8 6 5 4 3 1 1 1 1 4 5 5 5 3 5 5 5 4 3 2
1 1 1 1 0 1 2 2 2 3 2 2 2 3 2 3 2 0 1 2 3 3 4 3 5 10 10 6 5 6 5 4 4 4 4 3 4 4 4 3 2 1 2 3 2 2 4 4 3 2 2 2 2 2
1 2 2 2 2 3 3 3 2 2 2 3 2 2 1 1 1 1 2 4 5 6 6 7 4 3 2 4 6 7 5 5 5 4 3 2 3 5 4 4 5 5 4 4 7 8 8 3 2 2 2 2 1 1
2 3 2 2 3 4 3 4 2 1 0 3 2 1 1 1 1 3 7 8 7 7 10 4 3 1 2 2 1 2 4 7 7 5 2 0 2 4 5 4 3 1 1 2 2 2 2 1 1 2 2 2 2 1
3 3 2 3 3 2 1 1 3 3 1 2 3 2 1 2 2 4 6 10 13 11 7 4 3 2 2 2 2 4 2 1 2 6 10 9 5 5 5 5 5 6 6 6 5 5 3 3 3 3 2 3 2 1
3 3 2 2 1 2 2 1 1 2 2 1 3 4 3 3 2 4 11 13 12 11 12 9 6 3 3 5 7 8 8 7 5 6 3 6 13 12 8 7 8 6 5 2 2 1 1 2 3 4 4 4 4 3
2 1 2 3 1 2 2 0 1 1 1 1 1 3 3 3 3 4 10 20 19 13 9 7 6 7 7 4 2 1 4 4 6 7 8 8 6 3 3 2 3 2 3 3 3 4 5 5 5 4 4 4 4 4
Wind_Direction
225 217 216 219 221 229 240 264 301 346 358 4 8 7 9 7 14 13 306 14 9 312 277 227 273 324 338 44 12 322 293 43 355 49 7 60 24 46 89 47 35 82 143 159 118 154 199 5 275 235 7 318 338 116
224 213 211 212 216 222 226 244 267 317 339 353 359 359 2 3 7 15 341 340 335 237 297 255 257 261 258 271 280 293 314 308 11 336 52 203 84 24 343 143 154 160 360 32 211 357 285 80 332 324 299 298 0 152
221 206 207 208 211 217 221 235 248 268 314 333 349 350 353 359 359 4 334 337 344 299 269 277 85 319 294 232 213 223 208 316 7 353 349 2 64 296 53 57 306 77 62 283 260 120 303 28 348 333 315 310 12 115
208 198 201 205 209 212 218 229 244 251 286 316 334 336 341 348 351 344 328 314 26 326 295 343 333 327 307 294 203 214 329 285 289 276 311 309 118 267 85 36 297 18 292 21 281 251 270 112 19 337 23 91 100 103
182 194 198 202 205 209 218 229 242 245 268 297 316 325 332 338 344 347 66 86 37 343 316 303 310 346 352 176 173 196 231 265 299 311 321 21 27 220 46 261 232 188 154 255 316 299 306 115 312 356 123 108 110 124
189 194 198 202 204 211 220 231 234 244 251 281 305 315 324 331 344 78 215 338 73 19 295 309 344 304 357 110 123 103 86 74 41 325 326 279 310 286 230 228 257 217 208 217 329 254 220 191 133 49 71 98 146 131
196 186 191 202 210 216 222 231 229 233 245 271 292 303 313 318 327 284 323 253 220 358 311 301 321 60 330 336 94 115 68 74 326 112 249 294 199 309 244 220 194 228 236 210 210 186 177 228 129 136 117 93 151 242
183 187 194 203 212 215 220 216 215 223 244 264 287 295 301 298 293 309 18 257 233 297 301 295 283 289 359 176 191 16 139 170 81 315 198 229 162 278 241 251 322 319 312 275 210 214 289 244 127 128 127 141 142 152
189 195 203 206 209 215 208 205 207 219 237 258 285 301 297 156 113 29 42 101 148 266 318 257 273 132 348 86 338 157 304 210 91 234 217 201 172 220 260 308 311 327 299 300 298 219 194 201 145 115 41 58 40 28
196 195 200 206 202 195 191 195 199 207 221 261 296 219 139 95 139 144 266 184 192 178 223 255 223 248 247 151 148 231 290 212 217 155 142 227 221 318 334 321 305 308 292 273 251 199 194 195 208 14 8 356 353 351
206 203 196 187 183 180 179 182 187 190 207 199 173 168 38 138 158 222 184 227 162 231 198 240 227 270 173 239 160 301 187 219 234 136 236 188 216 165 44 42 22 26 44 62 75 67 59 35 15 4 10 10 2 350
201 195 187 179 177 176 179 179 179 181 182 164 180 83 57 159 90 220 220 195 217 256 191 224 224 216 206 222 215 163 256 231 231 144 224 206 135 134 34 26 23 27 29 34 37 33 26 19 10 358 348 342 337 337
205 204 202 191 185 181 182 181 178 168 150 128 125 132 164 162 150 200 187 185 228 206 203 202 196 195 168 207 141 203 231 242 227 222 186 93 137 141 60 16 8 1 2 0 354 350 342 333 330 329 316 309 307 306
204 196 202 201 193 188 183 177 178 172 161 196 173 138 210 183 224 206 218 241 8 254 292 240 183 214 239 202 157 244 96 250 233 210 136 145 153 130 59 338 345 341 340 334 327 320 314 307 303 301 294 293 291 287
187 188 195 180 182 172 165 168 172 165 187 180 206 200 217 242 260 262 267 264 232 257 212 163 133 113 223 210 229 109 226 233 269 60 93 119 117 77 347 341 331 326 328 323 320 313 308 303 297 294 292 288 283 283
159 163 165 173 166 157 152 160 168 193 202 223 232 238 224 256 277 278 250 263 242 204 160 219 81 20 202 232 203 215 251 223 100 107 122 139 166 293 300 300 299 294 291 294 300 300 301 299 293 291 295 289 287 287
159 154 165 155 148 146 154 147 173 202 226 205 228 234 266 280 270 277 271 270 164 229 218 122 188 234 123 211 215 230 31 86 125 119 122 230 282 289 289 294 298 299 299 295 285 298 300 293 279 274 278 309 316 311
134 134 139 143 142 142 146 156 181 195 225 228 245 143 205 239 280 271 273 267 230 216 190 203 130 187 213 219 182 121 112 110 95 5 318 303 290 289 305 307 305 301 320 343 347 330 327 354 1 337 305 326 323 334
136 140 143 144 135 129 145 176 203 231 236 266 257 256 263 292 302 302 316 281 238 273 165 205 178 187 185 156 120 117 98 14 340 331 310 301 288 294 307 313 332 14 13 359 354 350 352 0 355 348 351 341 341 353
132 137 140 118 86 122 134 139 192 258 255 301 306 291 345 325 326 309 327 17 244 208 185 127 78 83 104 109 100 61 11 343 307 317 315 332 331 316 295 282 300 26 19 2 20 25 22 22 23 19 26 31 33 29
116 132 153 56 15 41 273 169 211 233 244 244 337 211 169 195 227 358 4 344 232 65 147 135 120 116 127 88 304 274 290 276 281 262 285 282 300 306 302 52 38 71 46 24 24 27 39 35 35 38 46 55 59 74
111 151 270 306 332 333 283 221 276 324 249 306 181 233 95 146 48 23 318 274 265 102 221 157 134 242 272 278 289 262 279 282 282 279 278 270 265 109 55 48 90 77 63 51 54 57 59 50 60 58 66 85 90 84
110 12 334 355 335 33 77 173 269 156 322 19 1 49 42 16 7 318 281 271 290 263 214 232 269 264 269 293 272 265 271 274 278 280 281 177 100 107 104 95 102 105 86 70 87 84 74 69 71 83 93 92 84 77
207 235 226 209 212 306 280 162 45 36 55 35 37 68 33 355 338 1 280 272 241 199 205 230 230 262 244 246 261 286 281 291 76 84 114 129 101 79 90 95 94 93 97 98 100 95 92 89 79 75 69 73 73 73
250 245 190 326 210 255 94 64 34 73 103 33 277 293 94 300 310 299 263 271 234 228 226 210 200 221 244 263 243 299 356 36 105 102 89 126 118 115 101 99 99 104 107 112 110 105 101 94 80 77 75 76 80 81
63 1 28 12 43 19 135 124 123 89 260 238 224 143 190 241 242 245 255 242 235 225 211 212 197 177 200 207 183 163 90 115 132 120 126 146 147 131 122 117 118 128 143 104 105 128 185 144 58 55 68 62 58 68
43 86 69 89 79 36 39 194 164 233 240 219 193 186 199 231 247 240 247 214 229 201 216 206 191 182 176 169 167 163 136 127 104 115 134 154 167 162 144 128 339 358 261 293 289 281 276 279 272 267 262 256 249 219
226 171 202 130 244 158 246 239 223 225 227 197 183 212 231 217 241 236 196 170 167 158 159 167 147 147 148 155 151 152 144 134 133 138 154 196 216 224 229 255 306 0 61 55 6 303 270 253 243 259 263 298 329 260
221 186 185 245 217 219 231 229 239 220 219 188 206 227 240 263 254 192 189 175 169 167 157 152 163 162 184 184 177 184 192 188 188 200 217 203 192 197 190 159 127 105 86 52 36 31 40 93 160 114 85 71 88 112
196 152 225 241 213 221 233 196 241 323 269 196 233 296 250 246 237 186 161 167 174 186 179 166 161 240 68 110 135 261 253 242 237 244 266 226 106 143 175 192 201 204 357 340 340 324 354 43 340 286 289 277 283 278
138 180 229 234 287 331 332 252 224 232 239 236 201 222 142 146 157 169 159 166 169 178 203 229 250 255 231 227 240 275 272 254 264 269 253 246 244 223 224 228 240 256 269 279 292 286 276 281 286 310 346 0 3 354
208 220 259 273 238 251 265 329 137 136 168 93 25 27 31 38 74 188 186 184 198 217 231 238 251 248 251 277 278 268 260 260 306 343 330 245 234 233 233 265 283 278 281 275 306 7 63 32 33 46 50 52 57 56
296 235 254 300 333 150 222 55 63 95 27 59 110 158 187 200 195 197 197 209 214 223 234 244 275 297 294 278 282 70 119 121 92 73 63 66 83 133 181 153 111 91 103 100 91 78 59 41 26 25 31 33 25 21